www.pogodaiklimat.ru

Погода и климат >> Архив погоды >> Узбекистан >> Нукус


ПОГОДА в Нукусе

  • Прогноз погоды в Нукусе
  • Монитор погоды в Нукусе
  • Климат города

АРХИВ ПОГОДЫ в Нукусе

Время (UTC), дата Ветер
(напр.,м/с)
 
Видим.   Явления Облачность Т
(С)
Тd
(С)
f
(%)
Тe
(С)
Тes
(С)
Комфортность P
(гПа)
Po
(гПа)
Тmin
(С)
Tmax
(С)
R
(мм)
R24
(мм)
S
(см)
03 11.08 СЗ 7 20 км {гроза} 5/0
[Ac trans]
+19.2 +14.8 76 +20 +21 1010.9 1002.2
06 11.08 С 7 20 км 1/0
[Ac trans]
+23.8 +14.8 57 +27 +30 жарко 1012.1 1003.5 +18.7 7
09 11.08 С 8 20 км 1/0
[Ac trans]
+27.6 +8.6 30 +27 +30 жарко 1012.0 1003.9
12 11.08 С 6 20 км 1/0
[Ac trans]
+29.1 +7.0 25 +28 +30 жарко 1012.5 1003.9
15 11.08 С 5 20 км 3/0
[Ac lent]
+26.7 +6.8 28 +26 +26 жарко 1013.4 1004.7 +29.4
18 11.08 С 4 20 км ясно +21.8 +7.6 40 +23 +23 комфорт 1015.4 1006.6 +29.4
21 11.08 СЗ 3 20 км ясно +19.3 +8.5 50 +20 +20 1016.1 1007.1
00 12.08 СЗ 2 20 км ясно +15.9 +8.9 63 +16 +16 1016.0 1007.0
03 12.08 СЗ 3 20 км ясно +19.0 +8.4 50 +20 +22 1017.1 1008.1
06 12.08 СЗ 5 20 км ясно +26.3 +7.0 29 +26 +33 жарко 1016.6 1007.9 +15.5
09 12.08 СЗ 3 20 км ясно +29.2 +2.5 18 +27 +41 жарко 1015.2 1006.5
12 12.08 СЗ 3 20 км ясно +30.7 +5.3 20 +29 +34 жарко 1013.2 1004.7
15 12.08 З 2 20 км ясно +29.0 +7.7 26 +28 +28 жарко 1012.4 1003.8 +31.2
18 12.08 З 3 20 км ясно +24.5 +9.8 39 +25 +25 комфорт 1012.5 1003.9 +31.2
21 12.08 СЗ 1 20 км ясно +21.3 +11.0 52 +23 +23 комфорт 1011.8 1003.1
00 13.08 СЗ 1 20 км ясно +19.6 +11.0 58 +22 +22 комфорт 1011.6 1002.9
03 13.08 С 2 20 км ясно +23.4 +10.6 44 +25 +28 комфорт 1012.2 1003.5
06 13.08 СЗ 3 20 км ясно +30.7 +10.7 29 +31 +42 жарко 1012.4 1003.9 +18.9
09 13.08 СВ 3 20 км 1/0
[Ac trans]
+33.8 +8.4 21 +32 +45 жарко 1010.8 1002.3
12 13.08 С 6 20 км 3/0
[Ac trans]
+34.6 +8.8 21 +33 +35 жарко 1009.3 1001.0
15 13.08 СЗ 3 20 км 3/0
[Ci ing]
+31.1 +12.6 32 +32 +32 жарко 1008.8 1000.3 +35.0
18 13.08 З 2 20 км 3/0
[Ci fib]
+26.4 +13.5 45 +28 +28 жарко 1009.6 1001.0 +35.0
21 13.08 СЗ 2 20 км 3/0
[Ci fib]
+23.9 +13.4 52 +26 +26 жарко 1008.9 1000.3
00 14.08 С 2 20 км ясно +22.0 +12.7 56 +25 +25 комфорт 1009.0 1000.3
03 14.08 штиль 0 20 км 4/0
[Ac trans]
+25.6 +12.0 43 +27 +30 жарко 1010.0 1001.4
06 14.08 Ю 3 20 км 3/0
[Ci ing]
+32.3 +7.1 21 +31 +41 жарко 1010.4 1001.9 +21.0
09 14.08 Ю 2 20 км 8/3 1500 м
[Cb cap Ac As]
+34.3 +6.7 18 +32 +38 жарко 1009.1 1000.6
12 14.08 СЗ 3 20 км 9/0
[Ac trans Ci ing]
+34.1 +11.4 25 +34 +37 очень
жарко
1008.8 1000.5
15 14.08 З 2 20 км 5/0
[Ci ing]
+32.2 +11.9 29 +32 +32 жарко 1008.8 1000.3 +35.1
18 14.08 ЮЗ 1 20 км 4/0
[Ci fib]
+27.0 +16.2 52 +30 +30 душно 1009.7 1001.1 +35.1
21 14.08 штиль 0 20 км ясно +24.6 +15.5 57 +28 +28 душно 1009.1 1000.5
00 15.08 штиль 0 20 км 3/0
[Ci ing]
+22.3 +14.1 60 +26 +26 жарко 1009.6 1000.9
03 15.08 Ю 2 20 км 1/0
[Ac trans]
+25.6 +12.0 43 +27 +29 жарко 1010.7 1002.1
06 15.08 З 3 20 км 3/0
[Ac trans]
+32.9 +10.5 25 +32 +41 жарко 1011.2 1002.7 +21.8
09 15.08 З 5 20 км 3/0
[Ci ing]
+35.6 +9.8 21 +34 +42 очень
жарко
1010.6 1002.3
12 15.08 СЗ 10 20 км 4/0
[Ci ing]
+34.2 +10.9 24 +34 +34 очень
жарко
1010.4 1002.1
15 15.08 С 2 20 км 4/0
[Ci ing]
+31.5 +11.8 30 +32 +32 жарко 1010.6 1002.1 +36.2
18 15.08 СЗ 3 20 км 1/0
[Ci ing]
+27.8 +12.2 38 +29 +29 жарко 1011.6 1003.0 +36.2
21 15.08 С 3 20 км ясно +24.8 +12.7 47 +27 +27 жарко 1011.7 1003.1
00 16.08 С 2 20 км 1/0
[Ci fib]
+21.9 +11.5 52 +24 +24 комфорт 1012.1 1003.4
03 16.08 С 6 20 км 1/0
[Ci fib]
+25.0 +10.0 39 +26 +27 жарко 1013.7 1005.0
06 16.08 С 6 20 км 1/0
[Ci fib]
+31.9 +8.8 24 +31 +36 жарко 1014.4 1005.9 +21.6
09 16.08 С 6 20 км 1/0
[Ci fib]
+34.5 +7.0 18 +32 +39 жарко 1013.7 1005.3
12 16.08 С 7 20 км 3/0
[Ci fib]
+34.8 +6.4 17 +33 +34 жарко 1012.5 1004.1
15 16.08 СЗ 3 20 км 4/0
[Ac trans Ci fib]
+31.7 +9.5 25 +31 +31 жарко 1012.8 1004.3 +35.4
18 16.08 С 5 20 км ясно +27.4 +7.4 28 +27 +27 жарко 1013.7 1005.0 +35.4
21 16.08 СВ 4 20 км ясно +25.4 +1.5 21 +24 +24 комфорт 1013.0 1004.3
00 17.08 СВ 2 20 км ясно +21.2 0.0 24 +21 +21 комфорт 1012.9 1004.1
03 17.08 СВ 6 20 км 3/0
[Ac cast]
+23.6 0.0 21 +22 +23 комфорт 1013.9 1005.1
06 17.08 СВ 4 20 км 3/0
[Ac trans]
+30.2 0.0 14 +27 +34 жарко 1013.8 1005.3 +19.4
09 17.08 СВ 5 20 км 5/0
[Ac trans]
+33.2 +0.2 12 +30 +36 жарко 1011.9 1003.4
12 17.08 С 7 20 км 5/0
[Ci ing]
+32.2 +1.1 14 +29 +31 жарко 1010.3 1001.8
15 17.08 С 4 20 км 6/0
[Ac trans Ci ing]
+29.0 +6.7 24 +28 +28 жарко 1009.7 1001.1 +33.5
18 17.08 С 3 20 км 6/0
[Ac trans]
+26.7 +6.2 27 +26 +26 жарко 1009.8 1000.9 +33.5
21 17.08 С 1 20 км 3/0
[Ac trans]
+23.0 +5.6 32 +23 +23 комфорт 1007.8 999.1

 

Местоположение метеостанции Нукус (Каракалпакстан, Узбекистан): широта 42.45 долгота 59.62 высота над уровнем моря 77 м.

В архиве по умолчанию представлена погода в Нукусе за последнюю неделю. Архивные данные за месяц целиком и за предыдущие месяцы, начиная с января 2011 года, Вы можете получить, выбрав интересующий диапазон дат из раскрывающегося списка и нажав кнопку "Ввод!".


*Определитесь, кто Вы:
робот инопланетянин человек

Внимание! Время в таблицах - всемирное. Для получения местного времени необходимо прибавить поправку, которая в Нукусе равна 5 ч.

Смотрите также архив погоды в соседних городах и на ближайших метеорологических станциях:

Погода в Тахтакупыре (Каракалпакстан, Узбекистан) (3 км)
Погода в Тахиаташе (Каракалпакстан, Узбекистан) (6 км)
Погода в Кенеургенче (Дашогузский велаят, Туркменистан) (44 км)
Погода в Чимбае (Каракалпакстан, Узбекистан) (58 км)
Погода в Дашогузе (Дашогузский велаят, Туркменистан) (80 км)
Погода в Кунграде (Каракалпакстан, Узбекистан) (90 км)
Погода в Гурлене (Хорезмская область, Узбекистан) (92 км)
Погода в Шах-Сенеме (Дашогузский велаят, Туркменистан) (122 км)
Погода в Ургенче (Хорезмская область, Узбекистан) (125 км)
Погода в Хиве (Хорезмская область, Узбекистан) (133 км)

Пояснения к столбцам:

Ветер - указаны скорость ветра в м/с - средняя за 10 мин, порывы в срок и между сроками (в фигурных скобках) и направление, откуда дует ветер: С - северный, СВ - северо-восточный, В - восточный, ЮВ - юго-восточный, Ю - южный, ЮЗ - юго-западный, З - западный, СЗ - северо-западный.
Видимость - горизонтальная дальность видимости в метрах или километрах. При видимости от 1 до 10 км при отсутствии осадков обычно наблюдается дымка, при ухудшении видимости до 1 км и менее - туман. В сухую погоду видимость может ухудшаться дымом, пылью или мглою.
Явления - указаны атмосферные явления, наблюдавшиеся в срок или в последний час перед сроком; фигурными скобками обозначены явления, наблюдавшиеся между сроками (за 1-3 часа до срока); квадратными скобками обозначены град или гололедные отложения с указанием их диаметра в мм.
Облачность - указаны через наклонную черту общая и нижняя облачность в баллах и высота нижней границы облаков в метрах; квадратными скобками обозначены формы облаков: Ci - перистые, Cs - перисто-слоистые, Cc - перисто-кучевые, Ac - высококучевые, As - высокослоистые, Sc - слоисто-кучевые, Ns - слоисто-дождевые, Cu - кучевые, Cb - кучево-дождевые. Подробнее классификацию облаков см. в Атласе облаков (PDF).
T - Температура воздуха - температура, измеренная на высоте 2 м над землей.
Td - Температура точки росы - температура, при понижении до которой содержащийся в воздухе водяной пар достигнет насыщения.
f - Относительная влажность воздуха - влажноcть воздуха, измеренная на высоте 2 м над землей.
Te - Эффективная температура - температура, которую ощущает одетый по сезону человек в тени. Характеристика душности погоды. При расчете учитывается влияние влажности воздуха и скорости ветра на теплоощущения человека.
Tes - Эффективная температура на солнце - температура, которую ощущает человек, с поправкой на солнечный нагрев. Характеристика знойности погоды. Зависит от высоты солнца над горизонтом, облачности и скорости ветра. Ночью, в пасмурную погоду, а также при ветре 12 м/с и более поправка равна нулю.
P - Атмосферное давление - приведенное к уровню моря атмосферное давление.
Po - Атмосферное давление - измеренное на уровне метеостанции атмосферное давление.
Tmin - Минимальная температура - минимум температуры воздуха на высоте 2 м над землей.
Tmax - Максимальная температура - максимум температуры воздуха на высоте 2 м над землей.
R - Количество осадков - Количество выпавших осадков за период времени, мм. При наведении курсора мыши на число - период времени, за который выпало указанное количество осадков.
R24 - Количество осадков - Количество выпавших осадков за 24 часа, мм.
S - Снежный покров - Высота снежного покрова, см. При наведении курсора мыши на число - состояние снежного покрова и степень покрытия местности в баллах.